TimeEDT,TemperatureF,Dew PointF,Humidity,Sea Level PressureIn,VisibilityMPH,Wind Direction,Wind SpeedMPH,Gust SpeedMPH,PrecipitationIn,Events,Conditions,WindDirDegrees,DateUTC
12:53 AM,57.0,53.1,87,30.04,10.0,WSW,3.5,-,N/A,,Clear,250,2013-09-04 04:53:00
1:53 AM,55.9,53.1,90,30.04,10.0,Calm,Calm,-,N/A,,Clear,0,2013-09-04 05:53:00
2:53 AM,55.0,53.1,93,30.04,10.0,WSW,5.8,-,N/A,,Clear,240,2013-09-04 06:53:00
3:53 AM,55.9,53.1,90,30.04,10.0,WSW,4.6,-,N/A,,Clear,250,2013-09-04 07:53:00
4:53 AM,55.9,53.1,90,30.05,10.0,WSW,6.9,-,N/A,,Clear,250,2013-09-04 08:53:00
5:53 AM,55.9,54.0,93,30.06,10.0,WSW,6.9,-,0.01,,Clear,250,2013-09-04 09:53:00
6:53 AM,57.0,54.0,89,30.07,10.0,WSW,8.1,-,0.03,,Clear,240,2013-09-04 10:53:00
7:53 AM,57.9,55.0,90,30.08,10.0,WSW,6.9,-,N/A,,Clear,250,2013-09-04 11:53:00
8:53 AM,62.1,57.0,84,30.09,10.0,WSW,9.2,-,N/A,,Clear,250,2013-09-04 12:53:00
9:53 AM,66.9,59.0,76,30.07,10.0,WSW,9.2,-,N/A,,Clear,250,2013-09-04 13:53:00
10:53 AM,71.1,59.0,66,30.08,10.0,West,11.5,-,N/A,,Clear,270,2013-09-04 14:53:00
11:53 AM,73.0,57.0,57,30.08,10.0,West,13.8,-,N/A,,Clear,280,2013-09-04 15:53:00
12:53 PM,75.9,57.0,52,30.08,10.0,West,16.1,21.9,N/A,,Clear,260,2013-09-04 16:53:00
1:53 PM,77.0,57.9,52,30.07,10.0,West,13.8,-,N/A,,Clear,270,2013-09-04 17:53:00
2:53 PM,78.1,57.9,50,30.06,10.0,WSW,11.5,-,N/A,,Clear,240,2013-09-04 18:53:00
3:53 PM,79.0,57.9,48,30.04,10.0,WSW,16.1,-,N/A,,Clear,250,2013-09-04 19:53:00
4:53 PM,79.0,57.0,47,30.04,10.0,West,16.1,-,N/A,,Clear,260,2013-09-04 20:53:00
5:53 PM,79.0,59.0,50,30.04,10.0,West,11.5,-,N/A,,Clear,260,2013-09-04 21:53:00
6:53 PM,77.0,59.0,54,30.04,10.0,West,13.8,-,N/A,,Clear,270,2013-09-04 22:53:00
7:53 PM,73.0,60.1,64,30.06,10.0,West,13.8,-,N/A,,Overcast,270,2013-09-04 23:53:00
8:53 PM,71.1,60.1,68,30.07,10.0,West,9.2,-,0.01,,Mostly Cloudy,270,2013-09-05 00:53:00
9:53 PM,66.9,60.1,79,30.09,10.0,West,6.9,-,0.01,,Partly Cloudy,270,2013-09-05 01:53:00
10:53 PM,64.9,60.1,84,30.11,10.0,West,4.6,-,0.01,,Clear,280,2013-09-05 02:53:00
11:53 PM,63.0,60.1,90,30.12,10.0,NW,3.5,-,N/A,,Mostly Cloudy,320,2013-09-05 03:53:00